Time,TemperatureF,DewpointF,PressureIn,WindDirection,WindDirectionDegrees,WindSpeedMPH,WindSpeedGustMPH,Humidity,HourlyPrecipIn,Conditions,Clouds,dailyrainin,SoftwareType,DateUTC
2013-06-28 00:00:00,74.0,45.7,30.25,WNW,289,0.0,0.0,36,0.00,,---,0.00,VWS V14.00,2013-06-28 07:00:00,
2013-06-28 00:10:00,73.1,45.0,30.25,WNW,289,0.0,0.0,36,0.00,,---,0.00,VWS V14.00,2013-06-28 07:10:00,
2013-06-28 00:15:00,72.8,45.4,30.25,WNW,289,0.0,0.0,38,0.00,,---,0.00,VWS V14.00,2013-06-28 07:15:00,
2013-06-28 00:20:00,72.9,45.5,30.25,WNW,288,0.0,0.0,38,0.00,,---,0.00,VWS V14.00,2013-06-28 07:20:00,
2013-06-28 00:25:00,73.1,45.7,30.25,WNW,289,0.0,0.0,38,0.00,,---,0.00,VWS V14.00,2013-06-28 07:25:00,
2013-06-28 00:30:00,73.1,45.7,30.25,WNW,288,0.0,0.0,38,0.00,,---,0.00,VWS V14.00,2013-06-28 07:30:00,
2013-06-28 00:35:00,73.0,45.6,30.25,WNW,288,0.0,0.0,38,0.00,,---,0.00,VWS V14.00,2013-06-28 07:35:00,
2013-06-28 00:40:00,72.8,45.4,30.25,WNW,289,0.0,0.0,38,0.00,,---,0.00,VWS V14.00,2013-06-28 07:40:00,
2013-06-28 00:45:00,73.1,45.7,30.25,WNW,288,0.0,0.0,38,0.00,,---,0.00,VWS V14.00,2013-06-28 07:45:00,
2013-06-28 00:50:00,73.2,45.8,30.25,WNW,289,0.0,0.0,38,0.00,,---,0.00,VWS V14.00,2013-06-28 07:50:00,
2013-06-28 00:55:00,73.3,45.8,30.25,WNW,288,0.0,0.0,38,0.00,,---,0.00,VWS V14.00,2013-06-28 07:55:00,
2013-06-28 01:00:00,73.4,45.9,30.25,WNW,288,0.0,0.0,38,0.00,,---,0.00,VWS V14.00,2013-06-28 08:00:00,
2013-06-28 01:10:00,73.2,45.8,30.25,WNW,288,0.0,0.0,38,0.00,,---,0.00,VWS V14.00,2013-06-28 08:10:00,
2013-06-28 01:15:00,73.1,45.7,30.25,WNW,288,0.0,0.0,38,0.00,,---,0.00,VWS V14.00,2013-06-28 08:15:00,
2013-06-28 01:20:00,72.9,45.5,30.25,WNW,289,0.0,0.0,38,0.00,,---,0.00,VWS V14.00,2013-06-28 08:20:00,
2013-06-28 01:25:00,72.6,45.2,30.25,WNW,289,0.0,0.0,38,0.00,,---,0.00,VWS V14.00,2013-06-28 08:25:00,
2013-06-28 01:30:00,72.1,45.5,30.25,WNW,289,0.0,0.0,38,0.00,,---,0.00,VWS V14.00,2013-06-28 08:30:00,
2013-06-28 01:35:00,71.5,44.9,30.25,WNW,289,0.0,0.0,38,0.00,,---,0.00,VWS V14.00,2013-06-28 08:35:00,
2013-06-28 01:40:00,70.8,44.3,30.25,WNW,289,0.0,0.0,38,0.00,,---,0.00,VWS V14.00,2013-06-28 08:40:00,
2013-06-28 01:45:00,70.1,45.0,30.25,WNW,288,0.0,0.0,40,0.00,,---,0.00,VWS V14.00,2013-06-28 08:45:00,
2013-06-28 01:50:00,70.4,45.3,30.25,WNW,288,0.0,0.0,40,0.00,,---,0.00,VWS V14.00,2013-06-28 08:50:00,
2013-06-28 01:55:00,70.6,45.5,30.25,WNW,289,0.0,0.0,40,0.00,,---,0.00,VWS V14.00,2013-06-28 08:55:00,
2013-06-28 02:00:00,70.7,46.2,30.25,WNW,289,0.0,0.0,42,0.00,,---,0.00,VWS V14.00,2013-06-28 09:00:00,
2013-06-28 02:05:00,70.7,46.2,30.25,WNW,289,0.0,0.0,42,0.00,,---,0.00,VWS V14.00,2013-06-28 09:05:00,
2013-06-28 02:10:00,70.4,45.3,30.25,WNW,288,0.0,0.0,40,0.00,,---,0.00,VWS V14.00,2013-06-28 09:10:00,
2013-06-28 02:15:00,68.8,43.8,30.25,WNW,289,0.0,0.0,40,0.00,,---,0.00,VWS V14.00,2013-06-28 09:15:00,
2013-06-28 02:20:00,67.0,42.9,30.25,WNW,289,0.0,0.0,42,0.00,,---,0.00,VWS V14.00,2013-06-28 09:20:00,
2013-06-28 02:25:00,66.4,43.5,30.25,WNW,289,0.0,0.0,44,0.00,,---,0.00,VWS V14.00,2013-06-28 09:25:00,
2013-06-28 02:30:00,66.5,43.6,30.25,WNW,288,0.0,0.0,44,0.00,,---,0.00,VWS V14.00,2013-06-28 09:30:00,
2013-06-28 02:35:00,66.0,43.2,30.25,WNW,289,0.0,0.0,44,0.00,,---,0.00,VWS V14.00,2013-06-28 09:35:00,
2013-06-28 02:40:00,65.9,43.7,30.25,WNW,289,0.0,0.0,44,0.00,,---,0.00,VWS V14.00,2013-06-28 09:40:00,
2013-06-28 02:45:00,65.9,43.7,30.25,WNW,288,0.0,0.0,44,0.00,,---,0.00,VWS V14.00,2013-06-28 09:45:00,
2013-06-28 02:50:00,65.7,43.5,30.25,WNW,288,0.0,0.0,44,0.00,,---,0.00,VWS V14.00,2013-06-28 09:50:00,
2013-06-28 02:55:00,65.7,43.5,30.25,WNW,289,0.0,0.0,44,0.00,,---,0.00,VWS V14.00,2013-06-28 09:55:00,
2013-06-28 03:00:00,65.7,43.5,30.25,WNW,289,0.0,0.0,44,0.00,,---,0.00,VWS V14.00,2013-06-28 10:00:00,
2013-06-28 03:05:00,66.1,43.3,30.25,WNW,288,0.0,0.0,44,0.00,,---,0.00,VWS V14.00,2013-06-28 10:05:00,
2013-06-28 03:10:00,65.5,43.3,30.25,WNW,288,0.0,0.0,44,0.00,,---,0.00,VWS V14.00,2013-06-28 10:10:00,
2013-06-28 03:15:00,66.2,44.0,30.25,WNW,289,0.0,0.0,44,0.00,,---,0.00,VWS V14.00,2013-06-28 10:15:00,
2013-06-28 03:20:00,65.3,43.2,30.24,WNW,288,0.0,0.0,44,0.00,,---,0.00,VWS V14.00,2013-06-28 10:20:00,
2013-06-28 03:30:00,65.1,43.5,30.24,WNW,289,0.0,0.0,46,0.00,,---,0.00,VWS V14.00,2013-06-28 10:30:00,
2013-06-28 03:40:00,65.2,43.0,30.24,WNW,289,0.0,0.0,44,0.00,,---,0.00,VWS V14.00,2013-06-28 10:40:00,
2013-06-28 03:45:00,64.9,42.8,30.24,WNW,289,0.0,0.0,44,0.00,,---,0.00,VWS V14.00,2013-06-28 10:45:00,
2013-06-28 03:50:00,64.4,42.9,30.24,WNW,289,0.0,0.0,46,0.00,,---,0.00,VWS V14.00,2013-06-28 10:50:00,
2013-06-28 03:55:00,64.2,43.3,30.24,WNW,289,0.0,0.0,46,0.00,,---,0.00,VWS V14.00,2013-06-28 10:55:00,
2013-06-28 04:05:00,65.5,43.9,30.24,WNW,289,0.0,0.0,46,0.00,,---,0.00,VWS V14.00,2013-06-28 11:05:00,
2013-06-28 04:10:00,66.3,44.0,30.24,WNW,289,0.0,0.0,44,0.00,,---,0.00,VWS V14.00,2013-06-28 11:10:00,
2013-06-28 04:15:00,66.6,44.3,30.24,WNW,289,0.0,0.0,44,0.00,,---,0.00,VWS V14.00,2013-06-28 11:15:00,
2013-06-28 04:25:00,66.6,43.7,30.24,WNW,289,0.0,0.0,44,0.00,,---,0.00,VWS V14.00,2013-06-28 11:25:00,
2013-06-28 04:30:00,65.9,43.1,30.24,WNW,289,0.0,0.0,44,0.00,,---,0.00,VWS V14.00,2013-06-28 11:30:00,
2013-06-28 04:35:00,65.1,43.5,30.24,WNW,289,0.0,0.0,46,0.00,,---,0.00,VWS V14.00,2013-06-28 11:35:00,
2013-06-28 04:40:00,65.6,44.0,30.24,WNW,288,0.0,0.0,46,0.00,,---,0.00,VWS V14.00,2013-06-28 11:40:00,
2013-06-28 04:45:00,65.2,43.6,30.24,WNW,289,0.0,0.0,46,0.00,,---,0.00,VWS V14.00,2013-06-28 11:45:00,
2013-06-28 04:50:00,65.0,43.5,30.24,WNW,289,0.0,0.0,46,0.00,,---,0.00,VWS V14.00,2013-06-28 11:50:00,
2013-06-28 04:55:00,64.2,42.7,30.24,WNW,288,0.0,0.0,46,0.00,,---,0.00,VWS V14.00,2013-06-28 11:55:00,
2013-06-28 05:00:00,63.7,43.4,30.24,WNW,289,0.0,0.0,48,0.00,,---,0.00,VWS V14.00,2013-06-28 12:00:00,
2013-06-28 05:05:00,64.1,43.8,30.24,WNW,289,0.0,0.0,48,0.00,,---,0.00,VWS V14.00,2013-06-28 12:05:00,
2013-06-28 05:10:00,64.4,43.5,30.24,WNW,289,0.0,0.0,46,0.00,,---,0.00,VWS V14.00,2013-06-28 12:10:00,
2013-06-28 05:15:00,63.8,42.9,30.24,WNW,288,0.0,0.0,46,0.00,,---,0.00,VWS V14.00,2013-06-28 12:15:00,
2013-06-28 05:20:00,63.1,42.8,30.24,WNW,289,0.0,0.0,48,0.00,,---,0.00,VWS V14.00,2013-06-28 12:20:00,
2013-06-28 05:25:00,62.8,42.6,30.24,WNW,289,0.0,0.0,48,0.00,,---,0.00,VWS V14.00,2013-06-28 12:25:00,
2013-06-28 05:30:00,62.5,42.3,30.24,WNW,289,0.0,0.0,48,0.00,,---,0.00,VWS V14.00,2013-06-28 12:30:00,
2013-06-28 05:40:00,61.3,42.3,30.24,WNW,289,0.0,0.0,50,0.00,,---,0.00,VWS V14.00,2013-06-28 12:40:00,
2013-06-28 05:45:00,61.3,42.3,30.25,WNW,289,0.0,0.0,50,0.00,,---,0.00,VWS V14.00,2013-06-28 12:45:00,
2013-06-28 05:50:00,61.5,42.5,30.25,WNW,289,0.0,0.0,50,0.00,,---,0.00,VWS V14.00,2013-06-28 12:50:00,
2013-06-28 05:55:00,61.8,42.7,30.24,WNW,289,0.0,0.0,50,0.00,,---,0.00,VWS V14.00,2013-06-28 12:55:00,
2013-06-28 06:00:00,62.0,42.4,30.24,WNW,289,0.0,0.0,48,0.00,,---,0.00,VWS V14.00,2013-06-28 13:00:00,
2013-06-28 06:05:00,62.1,42.5,30.24,WNW,289,0.0,0.0,48,0.00,,---,0.00,VWS V14.00,2013-06-28 13:05:00,
2013-06-28 06:10:00,62.6,42.9,30.24,WNW,288,0.0,0.0,48,0.00,,---,0.00,VWS V14.00,2013-06-28 13:10:00,
2013-06-28 06:15:00,63.3,43.0,30.24,WNW,289,0.0,0.0,48,0.00,,---,0.00,VWS V14.00,2013-06-28 13:15:00,
2013-06-28 06:20:00,64.0,43.1,30.24,WNW,289,0.0,0.0,46,0.00,,---,0.00,VWS V14.00,2013-06-28 13:20:00,
2013-06-28 06:25:00,64.3,43.4,30.25,WNW,289,0.0,0.0,46,0.00,,---,0.00,VWS V14.00,2013-06-28 13:25:00,
2013-06-28 06:30:00,64.9,43.4,30.24,WNW,288,0.0,0.0,46,0.00,,---,0.00,VWS V14.00,2013-06-28 13:30:00,
2013-06-28 06:35:00,65.3,43.2,30.25,WNW,289,0.0,0.0,44,0.00,,---,0.00,VWS V14.00,2013-06-28 13:35:00,
2013-06-28 06:40:00,65.8,43.6,30.25,WNW,289,0.0,0.0,44,0.00,,---,0.00,VWS V14.00,2013-06-28 13:40:00,
2013-06-28 06:45:00,66.6,44.3,30.25,WNW,289,0.0,0.0,44,0.00,,---,0.00,VWS V14.00,2013-06-28 13:45:00,
2013-06-28 06:50:00,67.5,43.9,30.25,WNW,288,0.0,0.0,42,0.00,,---,0.00,VWS V14.00,2013-06-28 13:50:00,
2013-06-28 06:55:00,67.7,44.1,30.25,WNW,289,0.0,0.0,42,0.00,,---,0.00,VWS V14.00,2013-06-28 13:55:00,
2013-06-28 07:00:00,67.6,45.2,30.25,WNW,289,0.0,0.0,44,0.00,,---,0.00,VWS V14.00,2013-06-28 14:00:00,
2013-06-28 07:05:00,67.4,45.6,30.25,WNW,288,0.0,0.0,46,0.00,,---,0.00,VWS V14.00,2013-06-28 14:05:00,
2013-06-28 07:10:00,67.6,45.8,30.25,WNW,289,0.0,0.0,46,0.00,,---,0.00,VWS V14.00,2013-06-28 14:10:00,
2013-06-28 07:15:00,67.8,46.0,30.25,WNW,289,0.0,0.0,46,0.00,,---,0.00,VWS V14.00,2013-06-28 14:15:00,
2013-06-28 07:20:00,68.5,46.0,30.25,WNW,289,0.0,0.0,44,0.00,,---,0.00,VWS V14.00,2013-06-28 14:20:00,
2013-06-28 07:25:00,69.0,46.5,30.25,WNW,288,5.0,5.0,44,0.00,,---,0.00,VWS V14.00,2013-06-28 14:25:00,
2013-06-28 07:30:00,69.4,46.9,30.25,WNW,288,4.0,5.0,44,0.00,,---,0.00,VWS V14.00,2013-06-28 14:30:00,
2013-06-28 07:35:00,69.8,47.2,30.25,WNW,289,2.0,5.0,44,0.00,,---,0.00,VWS V14.00,2013-06-28 14:35:00,
2013-06-28 07:40:00,70.4,47.2,30.25,WNW,289,2.0,5.0,44,0.00,,---,0.00,VWS V14.00,2013-06-28 14:40:00,
2013-06-28 07:45:00,70.8,47.5,30.25,WNW,288,2.0,6.0,44,0.00,,---,0.00,VWS V14.00,2013-06-28 14:45:00,
2013-06-28 07:50:00,71.1,48.4,30.25,WNW,289,1.0,6.0,44,0.00,,---,0.00,VWS V14.00,2013-06-28 14:50:00,
2013-06-28 07:55:00,71.5,48.8,30.25,WNW,289,2.0,5.0,44,0.00,,---,0.00,VWS V14.00,2013-06-28 14:55:00,
2013-06-28 08:00:00,72.1,48.1,30.25,WNW,288,2.0,5.0,42,0.00,,---,0.00,VWS V14.00,2013-06-28 15:00:00,
2013-06-28 08:05:00,72.7,48.6,30.25,WNW,289,0.0,2.0,42,0.00,,---,0.00,VWS V14.00,2013-06-28 15:05:00,
2013-06-28 08:10:00,73.5,48.7,30.25,WNW,289,0.0,3.0,42,0.00,,---,0.00,VWS V14.00,2013-06-28 15:10:00,
2013-06-28 08:15:00,74.0,49.2,30.25,WNW,289,4.0,4.0,42,0.00,,---,0.00,VWS V14.00,2013-06-28 15:15:00,
2013-06-28 08:20:00,74.2,48.7,30.25,WNW,288,0.0,5.0,40,0.00,,---,0.00,VWS V14.00,2013-06-28 15:20:00,
2013-06-28 08:25:00,74.7,48.5,30.25,WNW,289,0.0,2.0,40,0.00,,---,0.00,VWS V14.00,2013-06-28 15:25:00,
2013-06-28 08:30:00,75.1,50.1,30.25,WNW,288,4.0,4.0,42,0.00,,---,0.00,VWS V14.00,2013-06-28 15:30:00,
2013-06-28 08:35:00,75.3,49.0,30.25,WNW,288,0.0,6.0,40,0.00,,---,0.00,VWS V14.00,2013-06-28 15:35:00,
2013-06-28 08:40:00,75.3,49.0,30.25,WNW,289,1.0,6.0,40,0.00,,---,0.00,VWS V14.00,2013-06-28 15:40:00,
2013-06-28 08:45:00,75.3,49.7,30.24,WNW,289,3.0,5.0,40,0.00,,---,0.00,VWS V14.00,2013-06-28 15:45:00,
2013-06-28 08:50:00,75.7,49.4,30.24,WNW,289,1.0,4.0,40,0.00,,---,0.00,VWS V14.00,2013-06-28 15:50:00,
2013-06-28 08:55:00,76.3,49.2,30.24,WNW,289,1.0,5.0,38,0.00,,---,0.00,VWS V14.00,2013-06-28 15:55:00,
2013-06-28 09:00:00,76.8,48.9,30.24,WNW,288,1.0,5.0,38,0.00,,---,0.00,VWS V14.00,2013-06-28 16:00:00,
2013-06-28 09:10:00,77.4,49.5,30.24,WNW,289,1.0,7.0,38,0.00,,---,0.00,VWS V14.00,2013-06-28 16:10:00,
2013-06-28 09:15:00,77.6,48.9,30.24,WNW,288,4.0,8.0,36,0.00,,---,0.00,VWS V14.00,2013-06-28 16:15:00,
2013-06-28 09:20:00,77.8,50.5,30.24,WNW,289,7.0,7.0,38,0.00,,---,0.00,VWS V14.00,2013-06-28 16:20:00,
2013-06-28 09:30:00,78.7,49.9,30.24,WNW,289,2.0,7.0,36,0.00,,---,0.00,VWS V14.00,2013-06-28 16:30:00,
2013-06-28 09:35:00,78.7,50.6,30.24,WNW,288,4.0,8.0,38,0.00,,---,0.00,VWS V14.00,2013-06-28 16:35:00,
2013-06-28 09:40:00,78.4,51.1,30.23,WNW,289,3.0,7.0,38,0.00,,---,0.00,VWS V14.00,2013-06-28 16:40:00,
2013-06-28 09:45:00,78.3,51.0,30.23,WNW,289,2.0,10.0,38,0.00,,---,0.00,VWS V14.00,2013-06-28 16:45:00,
2013-06-28 09:50:00,78.7,51.3,30.23,WNW,289,6.0,7.0,38,0.00,,---,0.00,VWS V14.00,2013-06-28 16:50:00,
2013-06-28 09:55:00,79.3,50.4,30.23,WNW,289,4.0,7.0,36,0.00,,---,0.00,VWS V14.00,2013-06-28 16:55:00,
2013-06-28 10:00:00,79.8,50.1,30.23,WNW,289,3.0,8.0,36,0.00,,---,0.00,VWS V14.00,2013-06-28 17:00:00,
2013-06-28 10:05:00,80.4,49.9,30.23,WNW,289,6.0,8.0,34,0.00,,---,0.00,VWS V14.00,2013-06-28 17:05:00,
2013-06-28 10:10:00,80.6,49.3,30.23,WNW,288,7.0,8.0,34,0.00,,---,0.00,VWS V14.00,2013-06-28 17:10:00,
2013-06-28 10:20:00,81.2,49.0,30.23,WNW,288,4.0,7.0,32,0.00,,---,0.00,VWS V14.00,2013-06-28 17:20:00,
2013-06-28 10:25:00,81.8,48.7,30.22,WNW,289,3.0,8.0,32,0.00,,---,0.00,VWS V14.00,2013-06-28 17:25:00,
2013-06-28 10:30:00,82.0,48.8,30.22,WNW,288,1.0,8.0,32,0.00,,---,0.00,VWS V14.00,2013-06-28 17:30:00,
2013-06-28 10:35:00,82.3,48.2,30.22,WNW,288,3.0,9.0,30,0.00,,---,0.00,VWS V14.00,2013-06-28 17:35:00,
2013-06-28 10:40:00,82.7,48.6,30.22,WNW,289,1.0,9.0,30,0.00,,---,0.00,VWS V14.00,2013-06-28 17:40:00,
2013-06-28 10:45:00,83.0,48.8,30.22,WNW,288,5.0,9.0,30,0.00,,---,0.00,VWS V14.00,2013-06-28 17:45:00,
2013-06-28 10:50:00,83.5,49.3,30.22,WNW,288,6.0,8.0,30,0.00,,---,0.00,VWS V14.00,2013-06-28 17:50:00,
2013-06-28 10:55:00,83.9,50.5,30.21,WNW,289,4.0,11.0,32,0.00,,---,0.00,VWS V14.00,2013-06-28 17:55:00,
2013-06-28 11:05:00,84.8,47.6,30.21,WNW,289,7.0,12.0,28,0.00,,---,0.00,VWS V14.00,2013-06-28 18:05:00,
2013-06-28 11:10:00,84.6,47.5,30.21,WNW,288,6.0,10.0,28,0.00,,---,0.00,VWS V14.00,2013-06-28 18:10:00,
2013-06-28 11:20:00,85.7,47.4,30.20,WNW,288,2.0,10.0,26,0.00,,---,0.00,VWS V14.00,2013-06-28 18:20:00,
2013-06-28 11:25:00,86.4,48.0,30.20,WNW,288,4.0,9.0,26,0.00,,---,0.00,VWS V14.00,2013-06-28 18:25:00,
2013-06-28 11:35:00,86.6,47.2,30.20,WNW,289,8.0,12.0,26,0.00,,---,0.00,VWS V14.00,2013-06-28 18:35:00,
2013-06-28 11:40:00,86.8,47.3,30.20,WNW,289,7.0,8.0,26,0.00,,---,0.00,VWS V14.00,2013-06-28 18:40:00,
2013-06-28 11:45:00,87.1,46.5,30.20,WNW,289,9.0,11.0,24,0.00,,---,0.00,VWS V14.00,2013-06-28 18:45:00,
2013-06-28 11:50:00,87.0,47.5,30.20,WNW,289,10.0,11.0,26,0.00,,---,0.00,VWS V14.00,2013-06-28 18:50:00,
2013-06-28 12:00:00,87.7,47.0,30.19,WNW,288,9.0,12.0,24,0.00,,---,0.00,VWS V14.00,2013-06-28 19:00:00,
2013-06-28 12:05:00,88.7,46.8,30.19,WNW,289,10.0,11.0,24,0.00,,---,0.00,VWS V14.00,2013-06-28 19:05:00,
2013-06-28 12:10:00,88.4,46.5,30.19,WNW,289,9.0,13.0,24,0.00,,---,0.00,VWS V14.00,2013-06-28 19:10:00,
2013-06-28 12:20:00,88.9,45.8,30.19,WNW,288,6.0,12.0,22,0.00,,---,0.00,VWS V14.00,2013-06-28 19:20:00,
2013-06-28 12:30:00,89.7,46.4,30.18,WNW,289,5.0,10.0,22,0.00,,---,0.00,VWS V14.00,2013-06-28 19:30:00,
2013-06-28 12:35:00,89.6,46.3,30.18,WNW,289,9.0,13.0,22,0.00,,---,0.00,VWS V14.00,2013-06-28 19:35:00,
2013-06-28 12:45:00,89.9,45.4,30.18,WNW,289,8.0,15.0,22,0.00,,---,0.00,VWS V14.00,2013-06-28 19:45:00,
2013-06-28 12:50:00,90.0,45.5,30.18,WNW,289,9.0,10.0,22,0.00,,---,0.00,VWS V14.00,2013-06-28 19:50:00,
2013-06-28 13:00:00,90.5,44.6,30.17,WNW,288,6.0,13.0,20,0.00,,---,0.00,VWS V14.00,2013-06-28 20:00:00,
2013-06-28 13:05:00,90.9,46.2,30.17,WNW,289,13.0,13.0,22,0.00,,---,0.00,VWS V14.00,2013-06-28 20:05:00,
2013-06-28 13:10:00,91.8,45.7,30.17,WNW,289,9.0,15.0,20,0.00,,---,0.00,VWS V14.00,2013-06-28 20:10:00,
2013-06-28 13:15:00,91.5,45.5,30.17,WNW,289,6.0,15.0,20,0.00,,---,0.00,VWS V14.00,2013-06-28 20:15:00,
2013-06-28 13:20:00,91.7,45.6,30.17,WNW,289,13.0,13.0,20,0.00,,---,0.00,VWS V14.00,2013-06-28 20:20:00,
2013-06-28 13:25:00,92.2,46.0,30.16,WNW,289,10.0,16.0,20,0.00,,---,0.00,VWS V14.00,2013-06-28 20:25:00,
2013-06-28 13:30:00,92.2,46.0,30.16,WNW,289,10.0,15.0,20,0.00,,---,0.00,VWS V14.00,2013-06-28 20:30:00,
2013-06-28 13:35:00,92.3,46.1,30.16,WNW,288,11.0,14.0,20,0.00,,---,0.00,VWS V14.00,2013-06-28 20:35:00,
2013-06-28 13:40:00,92.6,45.0,30.16,WNW,289,12.0,14.0,20,0.00,,---,0.00,VWS V14.00,2013-06-28 20:40:00,
2013-06-28 13:45:00,93.1,45.5,30.16,WNW,289,7.0,13.0,20,0.00,,---,0.00,VWS V14.00,2013-06-28 20:45:00,
2013-06-28 13:50:00,93.9,44.7,30.16,WNW,289,4.0,15.0,18,0.00,,---,0.00,VWS V14.00,2013-06-28 20:50:00,
2013-06-28 13:55:00,94.0,43.3,30.16,WNW,291,6.0,15.0,18,0.00,,---,0.00,VWS V14.00,2013-06-28 20:55:00,
2013-06-28 14:00:00,94.0,44.8,30.15,West,277,18.0,18.0,18,0.00,,---,0.00,VWS V14.00,2013-06-28 21:00:00,
2013-06-28 14:10:00,94.3,45.0,30.15,WNW,284,13.0,16.0,18,0.00,,---,0.00,VWS V14.00,2013-06-28 21:10:00,
2013-06-28 14:20:00,95.3,45.9,30.14,WNW,288,11.0,13.0,18,0.00,,---,0.00,VWS V14.00,2013-06-28 21:20:00,
2013-06-28 14:25:00,95.1,44.2,30.14,WNW,282,6.0,15.0,18,0.00,,---,0.00,VWS V14.00,2013-06-28 21:25:00,
2013-06-28 14:30:00,95.7,44.7,30.14,WNW,283,7.0,16.0,18,0.00,,---,0.00,VWS V14.00,2013-06-28 21:30:00,
2013-06-28 14:40:00,95.7,44.7,30.13,West,276,12.0,18.0,18,0.00,,---,0.00,VWS V14.00,2013-06-28 21:40:00,
2013-06-28 14:45:00,94.8,45.5,30.13,West,275,11.0,18.0,18,0.00,,---,0.00,VWS V14.00,2013-06-28 21:45:00,
2013-06-28 14:55:00,93.7,44.6,30.13,West,272,10.0,19.0,18,0.00,,---,0.00,VWS V14.00,2013-06-28 21:55:00,
2013-06-28 15:05:00,92.6,42.2,30.13,West,273,8.0,16.0,18,0.00,,---,0.00,VWS V14.00,2013-06-28 22:05:00,
2013-06-28 15:10:00,92.7,42.3,30.13,West,273,12.0,12.0,18,0.00,,---,0.00,VWS V14.00,2013-06-28 22:10:00,
2013-06-28 15:15:00,92.4,43.5,30.13,West,273,12.0,13.0,18,0.00,,---,0.00,VWS V14.00,2013-06-28 22:15:00,
2013-06-28 15:25:00,91.6,42.9,30.13,West,271,13.0,13.0,18,0.00,,---,0.00,VWS V14.00,2013-06-28 22:25:00,
2013-06-28 15:30:00,91.3,46.6,30.14,WSW,250,12.0,20.0,22,0.00,,---,0.00,VWS V14.00,2013-06-28 22:30:00,
2013-06-28 15:35:00,90.7,44.8,30.14,West,261,20.0,20.0,20,0.00,,---,0.00,VWS V14.00,2013-06-28 22:35:00,
2013-06-28 15:40:00,91.4,36.5,30.16,East,99,29.0,38.0,14,0.00,,---,0.00,VWS V14.00,2013-06-28 22:40:00,
2013-06-28 15:45:00,90.6,35.8,30.15,ENE,64,20.0,29.0,14,0.00,,---,0.00,VWS V14.00,2013-06-28 22:45:00,
2013-06-28 15:55:00,89.3,38.1,30.16,North,355,7.0,27.0,16,0.00,,---,0.00,VWS V14.00,2013-06-28 22:55:00,
2013-06-28 16:00:00,89.4,36.5,30.16,East,82,6.0,24.0,16,0.00,,---,0.00,VWS V14.00,2013-06-28 23:00:00,
2013-06-28 16:10:00,88.2,37.2,30.15,NE,42,18.0,22.0,16,0.00,,---,0.00,VWS V14.00,2013-06-28 23:10:00,
2013-06-28 16:15:00,88.5,35.8,30.15,ENE,64,13.0,30.0,16,0.00,,---,0.00,VWS V14.00,2013-06-28 23:15:00,
2013-06-28 16:20:00,89.3,36.5,30.15,NNE,21,7.0,20.0,16,0.00,,---,0.00,VWS V14.00,2013-06-28 23:20:00,
2013-06-28 16:25:00,89.6,36.7,30.15,NNW,342,10.0,14.0,16,0.00,,---,0.00,VWS V14.00,2013-06-28 23:25:00,
2013-06-28 16:30:00,88.6,39.0,30.16,West,261,14.0,21.0,18,0.00,,---,0.00,VWS V14.00,2013-06-28 23:30:00,
2013-06-28 16:40:00,81.6,46.8,30.16,SW,227,9.0,12.0,30,0.00,,---,0.00,VWS V14.00,2013-06-28 23:40:00,
2013-06-28 16:45:00,80.4,44.8,30.17,SW,220,7.0,12.0,28,0.00,,---,0.00,VWS V14.00,2013-06-28 23:45:00,
2013-06-28 16:50:00,81.6,43.9,30.17,South,180,15.0,24.0,26,0.00,,---,0.00,VWS V14.00,2013-06-28 23:50:00,
2013-06-28 16:55:00,81.9,44.2,30.17,SSW,192,18.0,24.0,26,0.00,,---,0.00,VWS V14.00,2013-06-28 23:55:00,
2013-06-28 17:00:00,82.0,44.3,30.18,South,182,13.0,30.0,26,0.00,,---,0.00,VWS V14.00,2013-06-29 00:00:00,
2013-06-28 17:05:00,82.7,42.8,30.18,South,184,14.0,25.0,24,0.00,,---,0.00,VWS V14.00,2013-06-29 00:05:00,
2013-06-28 17:10:00,82.9,43.0,30.18,SSW,205,14.0,23.0,24,0.00,,---,0.00,VWS V14.00,2013-06-29 00:10:00,
2013-06-28 17:15:00,82.5,43.7,30.18,SSW,209,11.0,26.0,26,0.00,,---,0.00,VWS V14.00,2013-06-29 00:15:00,
2013-06-28 17:20:00,80.3,46.5,30.19,SSW,207,14.0,25.0,30,0.00,,---,0.00,VWS V14.00,2013-06-29 00:20:00,
2013-06-28 17:25:00,77.7,46.7,30.19,SSW,195,10.0,25.0,34,0.00,,---,0.00,VWS V14.00,2013-06-29 00:25:00,
2013-06-28 17:35:00,76.7,46.6,30.18,South,183,5.0,9.0,34,0.00,,---,0.00,VWS V14.00,2013-06-29 00:35:00,
2013-06-28 17:40:00,76.9,46.8,30.18,South,183,2.0,9.0,34,0.00,,---,0.00,VWS V14.00,2013-06-29 00:40:00,
2013-06-28 17:45:00,76.8,46.7,30.17,South,183,1.0,2.0,34,0.00,,---,0.00,VWS V14.00,2013-06-29 00:45:00,
2013-06-28 17:50:00,76.8,46.0,30.17,South,183,4.0,9.0,34,0.00,,---,0.00,VWS V14.00,2013-06-29 00:50:00,
2013-06-28 17:55:00,77.1,45.4,30.17,South,183,0.0,6.0,32,0.00,,---,0.00,VWS V14.00,2013-06-29 00:55:00,
2013-06-28 18:00:00,77.6,45.8,30.16,SSE,161,0.0,7.0,32,0.00,,---,0.00,VWS V14.00,2013-06-29 01:00:00,
2013-06-28 18:05:00,78.1,45.5,30.15,SSE,161,0.0,0.0,32,0.00,,---,0.00,VWS V14.00,2013-06-29 01:05:00,
2013-06-28 18:10:00,78.6,47.5,30.15,SSW,196,11.0,15.0,34,0.00,,---,0.00,VWS V14.00,2013-06-29 01:10:00,
2013-06-28 18:15:00,77.0,48.4,30.15,SSW,200,18.0,23.0,36,0.00,,---,0.00,VWS V14.00,2013-06-29 01:15:00,
2013-06-28 18:20:00,75.8,47.3,30.15,SSW,203,10.0,18.0,36,0.00,,---,0.00,VWS V14.00,2013-06-29 01:20:00,
2013-06-28 18:25:00,75.8,47.3,30.15,SSW,196,16.0,20.0,36,0.00,,---,0.00,VWS V14.00,2013-06-29 01:25:00,
2013-06-28 18:30:00,75.3,47.6,30.15,SSW,197,12.0,21.0,38,0.00,,---,0.00,VWS V14.00,2013-06-29 01:30:00,
2013-06-28 18:35:00,75.5,47.8,30.15,South,186,12.0,16.0,38,0.00,,---,0.00,VWS V14.00,2013-06-29 01:35:00,
2013-06-28 18:40:00,76.1,46.9,30.16,South,169,10.0,15.0,36,0.00,,---,0.00,VWS V14.00,2013-06-29 01:40:00,
2013-06-28 18:45:00,77.1,46.2,30.16,South,178,9.0,15.0,34,0.00,,---,0.00,VWS V14.00,2013-06-29 01:45:00,
2013-06-28 18:50:00,77.9,45.3,30.16,South,178,14.0,14.0,32,0.00,,---,0.00,VWS V14.00,2013-06-29 01:50:00,
2013-06-28 18:55:00,78.4,44.9,30.16,South,171,6.0,14.0,30,0.00,,---,0.00,VWS V14.00,2013-06-29 01:55:00,
2013-06-28 19:00:00,78.7,45.1,30.15,South,176,8.0,13.0,30,0.00,,---,0.00,VWS V14.00,2013-06-29 02:00:00,
2013-06-28 19:05:00,79.1,44.6,30.15,South,176,4.0,11.0,30,0.00,,---,0.00,VWS V14.00,2013-06-29 02:05:00,
2013-06-28 19:10:00,79.3,44.8,30.16,South,176,1.0,9.0,30,0.00,,---,0.00,VWS V14.00,2013-06-29 02:10:00,
2013-06-28 19:20:00,79.6,45.0,30.15,South,176,4.0,4.0,30,0.00,,---,0.00,VWS V14.00,2013-06-29 02:20:00,
2013-06-28 19:25:00,80.0,44.5,30.15,South,176,5.0,6.0,28,0.00,,---,0.00,VWS V14.00,2013-06-29 02:25:00,
2013-06-28 19:30:00,80.5,45.8,30.14,South,189,7.0,8.0,30,0.00,,---,0.00,VWS V14.00,2013-06-29 02:30:00,
2013-06-28 19:35:00,80.9,46.2,30.14,SSW,194,7.0,9.0,30,0.00,,---,0.00,VWS V14.00,2013-06-29 02:35:00,
2013-06-28 19:40:00,81.0,46.2,30.14,SSW,196,6.0,9.0,30,0.00,,---,0.00,VWS V14.00,2013-06-29 02:40:00,
2013-06-28 19:45:00,81.1,46.3,30.14,SSW,195,6.0,7.0,30,0.00,,---,0.00,VWS V14.00,2013-06-29 02:45:00,
2013-06-28 19:50:00,80.9,46.2,30.14,SSW,194,4.0,7.0,30,0.00,,---,0.00,VWS V14.00,2013-06-29 02:50:00,
2013-06-28 20:00:00,80.7,46.0,30.14,SSW,194,6.0,7.0,30,0.00,,---,0.00,VWS V14.00,2013-06-29 03:00:00,
2013-06-28 20:05:00,80.4,46.6,30.14,SSW,195,5.0,7.0,30,0.00,,---,0.00,VWS V14.00,2013-06-29 03:05:00,
2013-06-28 20:10:00,80.0,46.2,30.14,SSW,195,3.0,5.0,30,0.00,,---,0.00,VWS V14.00,2013-06-29 03:10:00,
2013-06-28 20:15:00,79.4,45.7,30.14,SSW,195,2.0,6.0,30,0.00,,---,0.00,VWS V14.00,2013-06-29 03:15:00,
2013-06-28 20:20:00,79.1,45.5,30.14,SSW,195,0.0,5.0,30,0.00,,---,0.00,VWS V14.00,2013-06-29 03:20:00,
2013-06-28 20:25:00,78.7,44.2,30.14,SSW,195,0.0,0.0,30,0.00,,---,0.00,VWS V14.00,2013-06-29 03:25:00,
2013-06-28 20:30:00,78.6,44.2,30.14,SSW,194,2.0,2.0,30,0.00,,---,0.00,VWS V14.00,2013-06-29 03:30:00,
2013-06-28 20:35:00,78.7,44.2,30.14,SSW,195,6.0,8.0,30,0.00,,---,0.00,VWS V14.00,2013-06-29 03:35:00,
2013-06-28 20:40:00,78.5,44.1,30.14,SSW,194,3.0,8.0,30,0.00,,---,0.00,VWS V14.00,2013-06-29 03:40:00,
2013-06-28 20:45:00,77.9,43.6,30.14,SSW,195,2.0,6.0,30,0.00,,---,0.00,VWS V14.00,2013-06-29 03:45:00,
2013-06-28 20:50:00,77.6,43.3,30.15,SSW,195,3.0,5.0,30,0.00,,---,0.00,VWS V14.00,2013-06-29 03:50:00,
2013-06-28 21:00:00,78.8,42.5,30.15,SSW,195,0.0,0.0,28,0.00,,---,0.00,VWS V14.00,2013-06-29 04:00:00,
2013-06-28 21:05:00,79.3,42.0,30.15,SSW,194,0.0,0.0,26,0.00,,---,0.00,VWS V14.00,2013-06-29 04:05:00,
2013-06-28 21:10:00,78.8,42.5,30.15,SSW,195,0.0,0.0,28,0.00,,---,0.00,VWS V14.00,2013-06-29 04:10:00,
2013-06-28 21:15:00,78.0,42.8,30.15,SSW,195,0.0,0.0,28,0.00,,---,0.00,VWS V14.00,2013-06-29 04:15:00,
2013-06-28 21:20:00,77.6,42.4,30.15,SSW,195,0.0,0.0,28,0.00,,---,0.00,VWS V14.00,2013-06-29 04:20:00,
2013-06-28 21:25:00,76.4,44.8,30.16,SSW,195,0.0,0.0,32,0.00,,---,0.00,VWS V14.00,2013-06-29 04:25:00,
2013-06-28 21:30:00,75.2,45.3,30.16,SSW,195,0.0,0.0,34,0.00,,---,0.00,VWS V14.00,2013-06-29 04:30:00,
2013-06-28 21:35:00,74.2,45.9,30.16,SSW,195,0.0,0.0,36,0.00,,---,0.00,VWS V14.00,2013-06-29 04:35:00,
2013-06-28 21:40:00,73.5,45.3,30.16,SSW,195,0.0,0.0,36,0.00,,---,0.00,VWS V14.00,2013-06-29 04:40:00,
2013-06-28 21:50:00,72.3,45.6,30.16,SSW,195,0.0,0.0,38,0.00,,---,0.00,VWS V14.00,2013-06-29 04:50:00,
2013-06-28 22:00:00,71.3,45.4,30.16,SSW,194,0.0,0.0,40,0.00,,---,0.00,VWS V14.00,2013-06-29 05:00:00,
2013-06-28 22:10:00,72.3,45.0,30.16,SSW,195,0.0,0.0,38,0.00,,---,0.00,VWS V14.00,2013-06-29 05:10:00,
2013-06-28 22:15:00,72.5,42.2,30.16,SSW,194,0.0,0.0,34,0.00,,---,0.00,VWS V14.00,2013-06-29 05:15:00,
2013-06-28 22:20:00,73.6,42.4,30.16,SSW,194,0.0,0.0,32,0.00,,---,0.00,VWS V14.00,2013-06-29 05:20:00,
2013-06-28 22:25:00,73.9,44.9,30.16,SSW,195,0.0,0.0,36,0.00,,---,0.00,VWS V14.00,2013-06-29 05:25:00,
2013-06-28 22:30:00,72.9,43.3,30.16,SSW,194,0.0,0.0,34,0.00,,---,0.00,VWS V14.00,2013-06-29 05:30:00,
2013-06-28 22:35:00,72.0,41.7,30.16,SSW,195,0.0,0.0,34,0.00,,---,0.00,VWS V14.00,2013-06-29 05:35:00,
2013-06-28 22:40:00,72.0,44.0,30.16,SSW,194,0.0,0.0,36,0.00,,---,0.00,VWS V14.00,2013-06-29 05:40:00,
2013-06-28 22:45:00,72.3,43.5,30.16,SSW,195,0.0,0.0,36,0.00,,---,0.00,VWS V14.00,2013-06-29 05:45:00,
2013-06-28 22:50:00,72.7,45.3,30.16,SSW,195,0.0,0.0,38,0.00,,---,0.00,VWS V14.00,2013-06-29 05:50:00,
2013-06-28 22:55:00,73.1,44.2,30.16,SSW,194,0.0,0.0,36,0.00,,---,0.00,VWS V14.00,2013-06-29 05:55:00,
2013-06-28 23:00:00,73.3,45.8,30.16,SSW,194,0.0,0.0,38,0.00,,---,0.00,VWS V14.00,2013-06-29 06:00:00,
2013-06-28 23:05:00,73.7,45.5,30.16,SSW,195,0.0,0.0,36,0.00,,---,0.00,VWS V14.00,2013-06-29 06:05:00,
2013-06-28 23:10:00,73.8,46.3,30.16,SSW,195,0.0,0.0,38,0.00,,---,0.00,VWS V14.00,2013-06-29 06:10:00,
2013-06-28 23:15:00,73.3,45.1,30.16,SSW,195,0.0,0.0,36,0.00,,---,0.00,VWS V14.00,2013-06-29 06:15:00,
2013-06-28 23:20:00,73.2,46.4,30.17,SSW,194,0.0,0.0,38,0.00,,---,0.00,VWS V14.00,2013-06-29 06:20:00,
2013-06-28 23:25:00,73.0,44.9,30.17,SSW,195,0.0,0.0,36,0.00,,---,0.00,VWS V14.00,2013-06-29 06:25:00,
2013-06-28 23:30:00,72.9,45.5,30.16,SSW,194,0.0,0.0,38,0.00,,---,0.00,VWS V14.00,2013-06-29 06:30:00,
2013-06-28 23:35:00,72.9,48.8,30.16,SSW,194,0.0,0.0,42,0.00,,---,0.00,VWS V14.00,2013-06-29 06:35:00,
2013-06-28 23:40:00,72.7,48.6,30.16,SSW,195,0.0,0.0,42,0.00,,---,0.00,VWS V14.00,2013-06-29 06:40:00,
2013-06-28 23:45:00,72.8,46.8,30.16,SSW,194,0.0,0.0,40,0.00,,---,0.00,VWS V14.00,2013-06-29 06:45:00,
2013-06-28 23:50:00,72.8,48.7,30.16,SSW,195,0.0,0.0,42,0.00,,---,0.00,VWS V14.00,2013-06-29 06:50:00,
2013-06-28 23:55:00,72.6,47.9,30.16,SSW,194,0.0,0.0,42,0.00,,---,0.00,VWS V14.00,2013-06-29 06:55:00,